www.pogodaiklimat.ru
Время
(UTC), дата
18 29.05
21 29.05
00 30.05
03 30.05
06 30.05
09 30.05
12 30.05
15 30.05
18 30.05
21 30.05
00 31.05
03 31.05
06 31.05
09 31.05
12 31.05
15 31.05
18 31.05
21 31.05
00 1.06
03 1.06
06 1.06
09 1.06
12 1.06
15 1.06
18 1.06
21 1.06
00 2.06
03 2.06
06 2.06
09 2.06
12 2.06
15 2.06
18 2.06
21 2.06
00 3.06
03 3.06
06 3.06
09 3.06
12 3.06
15 3.06
18 3.06
21 3.06
00 4.06
03 4.06
06 4.06
09 4.06
12 4.06
15 4.06
18 4.06
21 4.06
00 5.06
03 5.06
06 5.06
09 5.06
12 5.06
15 5.06
Ветер
(напр.,м/с)
Видим. Явления Облачность Т
(С)
Тd
(С)
f
(%)
Тe
(С)
Тes
(С)
Комфортность P
(гПа)
Po
(гПа)
Тmin
(С)
Tmax
(С)
R
(мм)
R24
(мм)
S
(см)
СВ 2 10 км гроза без осадков {ливн. осадки} 10/10 600 м
[Cb cap]
+17.7 +15.0 84 +18 +18 тепло 1012.1 988.2 +20.0 3
С 4 10 км {гроза} 6/0
[Ac trans Ci fib]
+15.5 +14.5 94 +14 +14 тепло 1011.9 987.8
СВ 3
{11}
10 км {гроза} 3/0
[Ac trans]
+14.1 +13.5 96 +13 +13 тепло 1011.5 987.3
СВ 3 10 км 4/0
[Ac trans Ci fib]
+14.1 +13.0 93 +13 +14 по сезону 1010.6 986.4 +13.7 0.0
СВ 3 10 км 6/0
[Ac trans Ci fib]
+20.2 +13.3 65 +23 +28 комфорт 1008.3 984.7 +13.7
СВ 5-10
{10}
10 км 9/0
[Ac trans Ci fib]
+24.2 +13.6 52 +26 +32 жарко 1006.8 983.5
СВ 4-10
{12}
10 км 10/4 600 м
[Cb calv Ac trans Ci fib]
+24.6 +9.3 38 +25 +28 комфорт 1005.2 981.9
Ю 4
{11}
10 км слаб. ливневой дождь 10/10 600 м
[Cb calv]
+18.9 +14.0 73 +20 +20 тепло 1006.4 982.7 0.0
штиль 0 10 км слаб. ливневой дождь 10/10 600 м
[Cb calv]
+15.5 +15.1 97 +15 +15 по сезону 1007.7 983.7 +25.5 3
Ю 2 10 км {ливн. осадки} 8/4 600 м
[Cb calv Ci fib]
+14.5 +13.6 94 +14 +14 по сезону 1008.7 984.6
ЮВ 1 10 км {ливн. осадки} 3/3 600 м
[Cb calv]
+11.9 +10.6 92 +12 +12 по сезону 1008.4 984.0
штиль 0 10 км 9/8 600 м
[Sc Ci fib]
+12.7 +11.2 91 +12 +12 по сезону 1007.6 983.4 +11.6 4
ЮЗ 2 10 км 9/3 1000 м
[Cu hum Ac trans Ci fib]
+17.2 +13.6 79 +18 +21 тепло 1006.7 982.8 +11.6 1
З 3 10 км гроза, ливневой дождь 9/9 600 м
[Cb cap]
+16.3 +10.7 69 +16 +17 прохладно 1006.6 982.7
С 2 4000 м слаб. ливневой дождь, в посл. час гроза 10/10 600 м
[Cb cap]
+13.1 +12.4 96 +12 +12 очень
холодно
1006.6 983.0
С 3
{10}
4000 м слаб. ливневой дождь 10/10 600 м
[Cb calv]
+10.7 +9.3 91 +9 +9 очень
холодно
1008.4 983.9 15
С 4
{11}
10 км слаб. ливневой дождь 10/10 600 м
[Cb calv]
+9.4 +8.8 96 +6 +6 очень
холодно
1009.3 984.7 +18.9 17
С 2
{10}
10 км {ливн. осадки} 8/0
[Ac trans]
+9.2 +8.2 93 +7 +7 холодно 1009.4 984.8
С 2 10 км слаб. ливневой дождь 9/9 600 м
[Cb calv]
+8.6 +7.8 95 +7 +7 прохладно 1009.0 984.3
С 2 10 км слаб. ливневой дождь 10/10 600 м
[Cb calv]
+8.1 +7.7 97 +6 +6 холодно 1008.7 984.0 +8.0 4
СВ 3 10 км в посл. час ливневой дождь 9/9 600 м
[Cb calv]
+9.2 +7.9 92 +7 +7 очень
холодно
1009.3 984.7 +8.0 3
СВ 3 10 км слаб. ливневой дождь 10/10 600 м
[Cb calv]
+9.3 +8.0 92 +7 +7 очень
холодно
1010.2 985.6
СВ 4 10 км {ливн. осадки} 9/8 600 м
[Cb calv Ac trans]
+9.8 +8.2 90 +7 +8 очень
холодно
1010.7 986.1
СВ 4
{10}
10 км 9/9 1000 м
[Sc]
+9.6 +7.9 89 +7 +7 очень
холодно
1011.3 986.7 2
СВ 4
{10}
10 км 9/9 1000 м
[Sc]
+9.4 +8.4 93 +6 +6 очень
холодно
1011.8 987.2 +10.4 1
СВ 3 4000 м дымка {ливн. осадки} 10/10 600 м
[Sc]
+9.7 +9.0 95 +7 +7 холодно 1011.2 986.5
СВ 3 10 км слаб. ливневой дождь 10/10 600 м
[Cb calv]
+9.5 +9.2 98 +7 +7 прохладно 1010.1 985.5
СВ 2 10 км в посл. час ливневой дождь 10/10 600 м
[]
+9.8 +9.4 97 +8 +8 холодно 1009.7 985.1 +9.2 4
СВ 3 4000 м дымка {ливн. осадки} 10/10 600 м
[Cb calv]
+10.4 +10.2 99 +8 +8 очень
холодно
1010.1 985.6 +9.2 4
СВ 3 4000 м дымка 10/10 600 м
[Cb calv]
+12.5 +11.5 94 +11 +11 холодно 1010.6 986.2
СВ 5
{10}
10 км гроза без осадков 9/9 600 м
[Cb cap]
+12.3 +12.1 99 +10 +10 очень
холодно
1010.1 985.8
СВ 4
{10}
10 км {гроза} 9/8 600 м
[Cb calv Ci fib]
+12.3 +10.9 91 +10 +11 очень
холодно
1010.7 986.4 9
СВ 3 10 км {гроза} 9/9 600 м
[Cb calv]
+11.7 +10.7 94 +10 +10 холодно 1010.8 986.4 +13.1 9
СВ 2 10 км 10/10 600 м
[Cb calv]
+11.5 +11.3 99 +10 +10 прохладно 1010.0 985.6
СВ 2 10 км 10/10 1000 м
[Sc]
+11.5 +11.5 100 +10 +10 по сезону 1009.7 985.3
СВ 2 10 км в посл. час ливневой дождь 10/10 600 м
[Cb calv]
+12.3 +12.3 100 +11 +11 по сезону 1008.7 984.4 +11.2 6
СВ 2 4000 м слаб. ливневой дождь 10/10 600 м
[Cb calv]
+12.4 +12.3 99 +11 +11 холодно 1008.5 984.2 +11.2 8
СВ 2 10 км в посл. час ливневой дождь 10/10 600 м
[Cb calv]
+14.4 +13.9 97 +14 +14 прохладно 1008.3 984.2
СВ 2 4000 м слаб. ливневой дождь 10/10 600 м
[Cb calv]
+15.1 +14.6 97 +15 +15 холодно 1007.4 983.4 8
СВ 1 10 км {ливн. осадки} 10/10 600 м
[Cb calv]
+15.0 +13.0 88 +15 +15 прохладно 1006.7 982.7 8
штиль 0 10 км слаб. ливневой дождь 10/10 600 м
[Cb calv]
+12.5 +12.2 98 +12 +12 прохладно 1006.0 981.8 +16.3 8
СЗ 1 10 км слаб. ливневой дождь 10/10 600 м
[Cb calv]
+11.6 +11.5 99 +11 +11 по сезону 1004.3 980.0
Ю 2 500 м туман ?/? +11.1 +11.1 100 +10 +10 по сезону 1003.1 978.8
Ю 2 2000 м дымка {туман} 10/10 600 м
[St]
+12.6 +12.4 99 +12 +12 по сезону 1003.6 979.4 +11.0 9
ЮЗ 4 10 км {туман} 9/9 600 м
[Cb calv]
+14.6 +11.4 81 +13 +14 прохладно 1003.5 979.5 +11.0 7
Ю 1 10 км 6/6 1000 м
[Cu med, cong]
+19.5 +11.4 59 +22 +29 комфорт 1003.5 979.9
Ю 3
{13}
10 км в посл. час гроза {ливн. осадки} 9/6 1000 м
[Cb calv Ac trans]
+15.9 +12.3 79 +15 +18 холодно 1005.1 981.1
ЮЗ 3
{11}
10 км 4/3 600 м
[Cb calv Ci fib]
+15.7 +10.7 72 +15 +17 прохладно 1005.7 981.7 2
Ю 3
{10}
10 км 3/3 1000 м
[Sc]
+14.4 +9.7 73 +14 +14 по сезону 1007.6 983.5 +19.8 2
ЮВ 1 10 км ясно +10.6 +9.2 91 +10 +10 прохладно 1008.3 983.8
ЮВ 2 10 км 8/0
[Ci fib]
+11.0 +8.9 87 +10 +10 по сезону 1009.6 985.1
ЮВ 2 10 км 6/0
[Ac trans Ci fib]
+10.7 +8.0 83 +9 +10 прохладно 1010.7 986.1 +10.2
ЮВ 3
{10}
10 км 8/0
[Ac trans Ci fib]
+15.7 +10.4 71 +15 +20 по сезону 1010.4 986.3 +10.2
Ю 4
{10}
10 км 9/8 600 м
[Cb calv Ac trans]
+17.4 +10.7 65 +17 +19 по сезону 1010.2 986.2
Ю 4-10
{15}
4000 м слаб. ливневой дождь {гроза} 10/10 600 м
[Cb calv]
+12.5 +10.0 85 +11 +11 очень
холодно
1010.9 986.5
Ю 3
{10}
10 км {ливн. осадки} 6/3 1000 м
[Sc Ac trans Ci fib]
+14.2 +11.3 83 +13 +15 холодно 1010.5 986.3 4
Местоположение метеостанции Тула (Тульская область, Россия): широта 54.23 долгота 37.62 высота над уровнем моря 205 м.
В архиве по умолчанию представлена погода в Туле за последнюю неделю. Архивные данные за месяц целиком и за предыдущие месяцы, начиная с января 2011 года, Вы можете получить, выбрав интересующий диапазон дат из раскрывающегося списка и нажав кнопку "Найти!".
*Определитесь, кто Вы:
Внимание! Время в таблицах - всемирное. Для получения местного времени необходимо прибавить поправку, которая равна 3 ч.
Смотрите также архив погоды в соседних городах и на ближайших метеорологических станциях:
Партнеры нашего сайта:      
Пояснения к столбцам:
  • Ветер - указаны скорость ветра в м/с - средняя за 10 мин, порывы в срок и между сроками (в фигурных скобках) и направление, откуда дует ветер: С - северный,
  • СВ - северо-восточный, В - восточный, ЮВ - юго-восточный, Ю - южный, ЮЗ - юго-западный, З - западный, СЗ - северо-западный.
  • Видимость - горизонтальная дальность видимости в метрах или километрах. При видимости от 1 до 10 км при отсутствии осадков обычно наблюдается дымка, при ухудшении видимости до 1 км и менее - туман. В сухую погоду видимость может ухудшаться дымом, пылью или мглою.
  • Явления - указаны атмосферные явления, наблюдавшиеся в срок или в последний час перед сроком; фигурными скобками обозначены явления, наблюдавшиеся между сроками (за 1-3 часа до срока); квадратными скобками обозначены град или гололедные отложения с указанием их диаметра в мм.
  • Облачность - указаны через наклонную черту общая и нижняя облачность в баллах и высота нижней границы облаков в метрах; квадратными скобками обозначены формы облаков: Ci - перистые, Cs - перисто-слоистые, Cc - перисто-кучевые, Ac - высококучевые, As - высокослоистые, Sc - слоисто-кучевые, Ns - слоисто-дождевые, Cu - кучевые, Cb - кучево-дождевые. Подробнее классификацию облаков см. в Атласе облаков (PDF).
  • T - Температура воздуха - температура, измеренная на высоте 2 м над землей.
  • Td - Температура точки росы - температура, при понижении до которой содержащийся в воздухе водяной пар достигнет насыщения.
  • f - Относительная влажность воздуха - влажноcть воздуха, измеренная на высоте 2 м над землей.
  • Te - Эффективная температура - температура, которую ощущает одетый по сезону человек в тени. Характеристика душности погоды. При расчете учитывается влияние влажности воздуха и скорости ветра на теплоощущения человека.
  • Tes - Эффективная температура на солнце - температура, которую ощущает человек, с поправкой на солнечный нагрев. Характеристика знойности погоды. Зависит от высоты солнца над горизонтом, облачности и скорости ветра. Ночью, в пасмурную погоду, а также при ветре 12 м/с и более поправка равна нулю.
  • P - Атмосферное давление - приведенное к уровню моря атмосферное давление.
  • Po - Атмосферное давление - измеренное на уровне метеостанции атмосферное давление.
  • Tmin - Минимальная температура - минимум температуры воздуха на высоте 2 м над землей.
  • Tmax - Максимальная температура - максимум температуры воздуха на высоте 2 м над землей.
  • R - Количество осадков - Количество выпавших осадков за период времени, мм. При наведении курсора мыши на число - период времени, за который выпало указанное количество осадков.
  • R24 - Количество осадков - Количество выпавших осадков за 24 часа, мм.
  • S - Снежный покров - Высота снежного покрова, см. При наведении курсора мыши на число - состояние снежного покрова и степень покрытия местности в баллах.